Location: Agadir Mansour Mhndou
(31.2424°N, 8.7730°W)
Time: 06:34:22
(UTC+00:00)

Okean 1 Rocket - Pass Details

Date: 16 October 2021
Orbit: 607 x 633 km, 82.5° (Epoch: 28 November)

Event Time Altitude Azimuth Distance (km) Brightness Sun altitude
Rises 18:28:18 0° 188° (S) 2,851 6.7 -6.4°
Reaches altitude 10° 18:30:30 10° 189° (S) 1,950 5.8 -6.9°
Maximum altitude 18:34:49 78° 276° (W) 623 3.2 -7.8°
Drops below altitude 10° 18:39:09 10° 3° (N) 1,962 5.5 -8.7°
Sets 18:41:23 0° 5° (N) 2,871 6.4 -9.2°
